Weather in Zaural'skiy

Russia / Chelyabinsk Oblast     54°47′26″N   61°13′56″E
temp.,
°C
wind,
m/s
gust,
m/s
humid.,
%
clouds,
%
prec.,
mm/h
press.,
hPa
HPBL,
m
13 may, thu
thu1323:00+17ene33575 0.0 102727
02:00+15ese33615 0.0 102726
05:00+14ssw11637 0.0 102710
08:00+19s115021 0.0 1027206
11:00+24nw34385 0.0 10261301
14:00+26nnw4527100 0.0 10252050
17:00+27nnw35265 0.0 10242343
20:00+23nnw22405 0.0 102414
14 may, fri
fri1423:00+19ne11465 0.0 102611
02:00+17ssw11485 0.0 102611
05:00+16wsw115011 0.0 102711
08:00+21s22435 0.0 1027197
11:00+26ssw34335 0.0 10271066
14:00+28sw34293 0.0 10252716
17:00+29sw45255 0.0 10243141
20:00+24wsw34414 0.0 102449
15 may, sat
sat1523:00+20wnw44434 0.0 102450
02:00+18nw33540 0.0 102432
05:00+16nw23595 0.1 102521
08:00+22wnw234410 0.0 1025207
11:00+26w343299 0.0 10241262
14:00+29w45245 0.0 10232170
17:00+29wsw35245 0.0 10222480
20:00+24wsw334113 0.1 102136
16 may, sun
sun1623:00+20wsw34507 0.2 102242
02:00+19nw355379 0.0 102157
05:00+17nw225685 0.0 102217
08:00+22wnw224539 0.0 1022206
11:00+28wsw34327 0.0 10211242
14:00+30wsw45255 0.0 10202714
17:00+30sw56250 0.0 10183075
20:00+25wnw22393 0.0 101715
17 may, mon
mon1723:00+22nnw22409 0.0 101819
02:00+19wnw33455 0.0 101825
05:00+18w33524 0.0 101924
08:00+23w35455 0.0 1019221
11:00+28wsw46284 0.0 10173113
14:00+20nne465334 1.1 1017185
17:00+29nw582386 1.1 10153360
20:00+23w3343100 0.0 101530